Location: Ash Observatory
(39.7321°N, 75.2004°W)
Time: 12:33:14
(UTC-04:00)

ISS - Pass Details

Date: 23 May 2019
Orbit: 408 x 418 km, 51.6° (Epoch: 18 June)

Event Time Altitude Azimuth Distance (km) Brightness Sun altitude
Rises 23:37:06 0° 311° (NW) 2,361 1.0 -26.7°
Reaches altitude 10° 23:40:17 10° 344° (NNW) 1,499 0.0 -26.9°
Maximum altitude 23:41:42 12° 9° (N) 1,374 -0.4 -27.0°
Drops below altitude 10° 23:43:09 10° 35° (NE) 1,501 -0.6 -27.1°
Enters shadow 23:43:28 - 39° (NE) 1,558 -0.5 -27.1°
